Location: Napa Junction
(38.1874°N, 122.2508°W)
Time: 21:55:45
(UTC+00:00)

CENTAUR R/B - Pass Details

Date: 07 December 2024
Orbit: 654 x 1528 km, 63.4° (Epoch: 19 January)

Event Time Altitude Azimuth Distance (km) Brightness Sun altitude
Rises 14:11:11 0° 193° (SSW) 3,111 5.2 -11.9°
Reaches altitude 10° 14:13:25 10° 187° (S) 2,269 4.6 -11.4°
Maximum altitude 14:18:22 47° 114° (ESE) 1,116 3.4 -10.5°
Drops below altitude 10° 14:24:24 10° 43° (NE) 2,770 5.2 -9.4°
Sets 14:27:23 0° 38° (NE) 3,873 5.8 -8.9°
